Location: Newark
(7.0858°N, 171.3717°E)
Time: 09:15:00
(UTC+00:00)

S-56A Canister/Altair - Pass Details

Date: 30 November 2020
Orbit: 633 x 2499 km, 38.9° (Epoch: 27 January)

Event Time Altitude Azimuth Distance (km) Brightness Sun altitude
Rises 15:23:38 0° 311° (NW) 3,057 - -44.2°
Reaches altitude 10° 15:26:03 10° 311° (NW) 2,052 - -43.6°
Maximum altitude 15:30:33 89° 34° (NNE) 633 - -42.6°
Exits shadow 15:35:06 10° 130° (SE) 2,075 10.3 -41.6°
Drops below altitude 10° 15:35:11 10° 130° (SE) 2,110 10.4 -41.5°
Sets 15:37:42 0° 130° (SE) 3,152 11.5 -41.0°
